Regional Weather Roundup
Issued by NWS

Home | Current Version | Previous Version | Graphics & Text | Print | Product List | Glossary On
Versions: 1 2 3 4 5 6 7 8 9 10 11 12 13 14 15 16 17 18 19 20 21 22 23 24 25 26 27
000
ASUS45 KBOU 241707
RWRCO

WEATHER ROUNDUP FOR COLORADO
NATIONAL WEATHER SERVICE DENVER/BOULDER CO
1100 AM MDT FRI MAR 24 2017

NOTE: "FAIR" INDICATES FEW OR NO CLOUDS BELOW 12000 FEET WITH NO
SIGNIFICANT WEATHER AND/OR OBSTRUCTIONS TO VISIBILITY.

COZ001>005-013-030-031-241800-
...NORTHWEST COLORADO...

CITY           SKY/WX    TMP DP  RH WIND       PRES   REMARKS
CRAIG          FAIR      49  28  44 N13G18    30.18R
HAYDEN         PTSUNNY   45  25  45 CALM      30.18R
MEEKER         PTSUNNY   47  30  51 E10       30.20R
MOUNT WERNER   NOT AVBL
STEAMBOAT SPGS CLOUDY    40  28  60 SW6       30.18R
WALDEN         NOT AVBL
$$

COZ006>008-011-241800-
...WEST CENTRAL VALLEYS...

CITY           SKY/WX    TMP DP  RH WIND       PRES   REMARKS
GRAND JUNCTION FAIR      52  30  43 N14G20    30.18R
MONTROSE       FAIR      47  30  51 NW15G24   30.18R
EAGLE          PTSUNNY   46  25  42 SW3       30.16R
RIFLE          FAIR      50  29  44 NW7G18    30.16R
DELTA          PTSUNNY   55  29  37 W16G23    30.14S
NUCLA          PTSUNNY   50  30  46 NE7       30.20R
$$

COZ017>023-064>068-241800-
...SOUTHWEST COLORADO...

CITY           SKY/WX    TMP DP  RH WIND       PRES   REMARKS
DURANGO        FAIR      50  24  36 N12G21    30.04R
CORTEZ         PTSUNNY   49  32  52 N18G26    30.14R
PAGOSA SPRINGS PTSUNNY   36  33  91 CALM      30.08R
TELLURIDE      FAIR      32  28  83 W9        30.18R WCI  24
WOLF CREEK PAS FAIR      23  18  80 NW9G17    30.15R WCI  13
$$

COZ009-010-012-014-032>034-037-058>063-241800-
...CENTRAL COLORADO...

CITY           SKY/WX    TMP DP  RH WIND       PRES   REMARKS
ASPEN          PTSUNNY   37  31  78 N7        30.15R
BUENA VISTA    FAIR      45  16  31 NW28G40   30.05R
COPPER MTN     CLOUDY    25  19  80 MISG      30.16R
BERTHOUD PASS  CLOUDY    18   5  57 MISG      30.14R
COTTONWOOD PAS FAIR      43  14  31 SW5       30.08R
GUNNISON       FAIR      43  21  41 NW16      30.10R
KREMMLING      PTSUNNY   45  27  49 NW10      30.16R
LEADVILLE      MIX PCPN  31  17  56 N18G30    30.13R WCI  19
MONARCH PASS   PTSUNNY   23  21  93 W13       30.22R WCI  11
SALIDA         FAIR      47  24  39 N16G24    30.11R
SUNLIGHT       PTSUNNY  N/A N/A N/A N5        30.24R
WILKERSON PASS CLOUDY    23  21  93 N9G20     30.13R WCI  13
$$

COZ069>075-241800-
...SAN LUIS VALLEY/SANGRE DE CRISTO MOUNTAINS...

CITY           SKY/WX    TMP DP  RH WIND       PRES   REMARKS
ALAMOSA        FAIR      45  27  49 N33G43    29.98R
LA VETA PASS   NOT AVBL
SAGUACHE       CLOUDY    41  28  60 N17       30.03R
$$

COZ035-036-038>040-241800-
...NORTHERN COLORADO FRONT RANGE...

CITY           SKY/WX    TMP DP  RH WIND       PRES   REMARKS
DENVER INTL AP CLOUDY    41  33  73 N29G35    30.10R
DMNS CITY PARK   N/A     45  30  55 N17G26    30.11S
AURORA         CLOUDY    39  33  78 N23G35    30.11R
FRONT RANGE AP CLOUDY    39  34  81 N22G28    30.10R
ERIE MUNI ARPT PTSUNNY   50  29  43 N22       30.11R
BOULDER MUN AP CLOUDY    50  28  43 N12G22    30.09R
CENTENNIAL     CLOUDY    39  39 100 N26G33    30.11R
BROOMFIELD     PTSUNNY   48  30  49 N21G30    30.11
FORT COLLINS   PTSUNNY   52  29  41 N23G32    30.10R
LONGMONT       FAIR      55  28  35 N18G28    30.11R
$$

COZ041-046-047-076>085-087-088-241800-
...PIKES PEAK/PALMER DIVIDE AND SOUTHERN FOOTHILLS...

CITY           SKY/WX    TMP DP  RH WIND       PRES   REMARKS
COLO. SPRINGS  FLURRIES  38  36  92 N35G46    30.00R
A. F. ACADEMY  CLOUDY    36  30  80 NW33G43   30.03R
SCHRIEVER AFB  LGT RAIN  35  31  87 N30G45    29.99R WCI  21
ELLICOTT       NOT AVBL
FALCON         LGT SNOW  34  31  88 N39G51    29.98R VSB 3/4 WCI  19
FORT CARSON    PTSUNNY   44  30  57 N43G58    29.97R
LIMON          NOT AVBL
MONUMENT HILL    N/A     32  30  93 N25G33    30.09R WCI  19
TRINIDAD       SNOW      33  32  96 N28G38    29.98R VSB 1/2 WCI  20
$$

COZ042>045-048>051-090-091-241800-
...NORTHEAST COLORADO...

CITY           SKY/WX    TMP DP  RH WIND       PRES   REMARKS
GREELEY ARPT   PTSUNNY   49  34  56 N28G33    30.10R
AKRON          LGT RAIN  38  35  89 N35G45    30.02R
BURLINGTON     HVY RAIN  39  37  92 N29G36    29.92R FOG
WRAY           CLOUDY    43  37  81 N30G39    29.95R
STERLING       CLOUDY    43  36  75 N24G33    30.05R
HOLYOKE        CLOUDY    43  37  81 N26G37    29.99R
FORT MORGAN    CLOUDY    44  35  69 N30G40    30.08R
$$

COZ086-089-092>099-241800-
...SOUTHEAST COLORADO...

CITY           SKY/WX    TMP DP  RH WIND       PRES   REMARKS
PUEBLO         CLOUDY    45  33  63 N33G45    30.00R
LA JUNTA       LGT SNOW  37  34  89 N37G51    29.95R FOG
LAMAR          CLOUDY    44  35  70 N33G44    29.85R
SPRINGFIELD      N/A     50  37  61 N47G59    29.75R
$$




USA.gov is the U.S. government's official web portal to all federal, state and local government web resources and services.